EN

Hourly Weather Alushta

Today, 23 January, Saturday

Time Temperature Precipitation Wind Pressure Humidity
00:00 +3°C° 0 mm 3 mps 737 mmHg 90%
01:00 +3°C° 0 mm 3 mps 737 mmHg 87%
02:00 +4°C° 0 mm 2 mps 737 mmHg 85%
03:00 +4°C° 0 mm 2 mps 737 mmHg 85%
04:00 +4°C° 0 mm 2 mps 737 mmHg 85%
05:00 +4°C° 0 mm 2 mps 737 mmHg 85%
06:00 +4°C° 0 mm 2 mps 737 mmHg 84%
07:00 +3°C° 0 mm 3 mps 737 mmHg 84%
08:00 +4°C° 0 mm 3 mps 737 mmHg 83%
09:00 +5°C° 0 mm 3 mps 737 mmHg 82%
10:00 +7°C° 0 mm 3 mps 737 mmHg 80%
11:00 +8°C° 0 mm 3 mps 736 mmHg 79%
12:00 +8°C° 0 mm 3 mps 736 mmHg 79%
13:00 +8°C° 0 mm 3 mps 736 mmHg 79%
14:00 +9°C° 0 mm 3 mps 736 mmHg 80%
15:00 +8°C° 0 mm 2 mps 735 mmHg 80%
16:00 +7°C° 0 mm 2 mps 735 mmHg 81%
17:00 +6°C° 0 mm 2 mps 735 mmHg 82%
18:00 +6°C° 0 mm 2 mps 735 mmHg 82%
19:00 +6°C° 0 mm 2 mps 735 mmHg 82%
20:00 +5°C° 0 mm 2 mps 735 mmHg 83%
21:00 +5°C° 0 mm 2 mps 735 mmHg 84%
22:00 +5°C° 0 mm 2 mps 735 mmHg 85%
23:00 +5°C° 0 mm 2 mps 734 mmHg 86%

Tomorrow, 24 January, Sunday

Time Temperature Precipitation Wind Pressure Humidity
00:00 +5°C° 0 mm 2 mps 734 mmHg 85%
01:00 +5°C° 0 mm 2 mps 734 mmHg 83%
02:00 +5°C° 0 mm 2 mps 733 mmHg 82%
03:00 +5°C° 0 mm 2 mps 733 mmHg 80%
04:00 +4°C° 0 mm 3 mps 733 mmHg 78%
05:00 +4°C° 0 mm 3 mps 733 mmHg 75%
06:00 +4°C° 0 mm 3 mps 733 mmHg 76%
07:00 +4°C° 0 mm 3 mps 732 mmHg 77%
08:00 +4°C° 0 mm 3 mps 732 mmHg 78%
09:00 +5°C° 0 mm 3 mps 732 mmHg 76%
10:00 +7°C° 0 mm 3 mps 732 mmHg 74%
11:00 +8°C° 0 mm 2 mps 732 mmHg 72%
12:00 +8°C° 0 mm 2 mps 732 mmHg 71%
13:00 +9°C° 0 mm 2 mps 732 mmHg 70%
14:00 +10°C° 0 mm 1 mps 731 mmHg 69%
15:00 +9°C° 0 mm 2 mps 731 mmHg 73%
16:00 +8°C° 0 mm 2 mps 731 mmHg 77%
17:00 +7°C° 0 mm 2 mps 731 mmHg 81%
18:00 +7°C° 0.1 mm 2 mps 732 mmHg 82%
19:00 +7°C° 0.1 mm 2 mps 732 mmHg 83%
20:00 +7°C° 0.1 mm 2 mps 732 mmHg 84%
21:00 +7°C° 0.3 mm 2 mps 732 mmHg 83%
22:00 +7°C° 0.3 mm 2 mps 732 mmHg 82%
23:00 +7°C° 0.3 mm 2 mps 732 mmHg 82%

Day after tomorrow, 25 January, Monday

Time Temperature Precipitation Wind Pressure Humidity
00:00 +7°C° 0 mm 2 mps 731 mmHg 80%
01:00 +7°C° 0 mm 2 mps 731 mmHg 79%
02:00 +7°C° 0 mm 2 mps 731 mmHg 77%
03:00 +7°C° 0 mm 2 mps 731 mmHg 78%
04:00 +7°C° 0 mm 2 mps 731 mmHg 80%
05:00 +6°C° 0 mm 2 mps 731 mmHg 81%
06:00 +7°C° 0 mm 2 mps 731 mmHg 81%
07:00 +7°C° 0 mm 2 mps 731 mmHg 81%
08:00 +7°C° 0 mm 2 mps 731 mmHg 81%
09:00 +8°C° 0 mm 2 mps 731 mmHg 80%
10:00 +9°C° 0 mm 3 mps 730 mmHg 78%
11:00 +10°C° 0 mm 3 mps 730 mmHg 77%
12:00 +10°C° 0 mm 3 mps 729 mmHg 76%
13:00 +9°C° 0 mm 3 mps 729 mmHg 75%
14:00 +9°C° 0 mm 3 mps 728 mmHg 74%
15:00 +9°C° 0.3 mm 3 mps 728 mmHg 79%
16:00 +8°C° 0.3 mm 3 mps 727 mmHg 83%
17:00 +7°C° 0.3 mm 3 mps 727 mmHg 88%
18:00 +6°C° 1.3 mm 4 mps 727 mmHg 89%
19:00 +7°C° 1.3 mm 4 mps 727 mmHg 91%
20:00 +7°C° 1.3 mm 5 mps 727 mmHg 93%
21:00 +7°C° 0.5 mm 6 mps 727 mmHg 91%
22:00 +5°C° 0.5 mm 7 mps 727 mmHg 89%
23:00 +5°C° 0.5 mm 8 mps 727 mmHg 87%

26 January, Tuesday

Time Temperature Precipitation Wind Pressure Humidity
00:00 +5°C° 0 mm 8 mps 727 mmHg 88%
01:00 +5°C° 0 mm 7 mps 727 mmHg 88%
02:00 +5°C° 0 mm 7 mps 727 mmHg 89%
03:00 +5°C° 0.1 mm 7 mps 727 mmHg 90%
04:00 +5°C° 0.1 mm 7 mps 727 mmHg 91%
05:00 +5°C° 0.1 mm 7 mps 727 mmHg 92%
06:00 +5°C° 1.5 mm 7 mps 727 mmHg 93%
07:00 +4°C° 1.5 mm 7 mps 727 mmHg 94%
08:00 +4°C° 1.5 mm 7 mps 727 mmHg 96%
09:00 +4°C° 1.4 mm 7 mps 728 mmHg 92%
10:00 +3°C° 1.4 mm 7 mps 728 mmHg 88%
11:00 +2°C° 1.4 mm 8 mps 729 mmHg 84%
12:00 +3°C° 0 mm 7 mps 730 mmHg 81%
13:00 +3°C° 0 mm 7 mps 730 mmHg 79%
14:00 +3°C° 0 mm 7 mps 731 mmHg 76%
15:00 +2°C° 0 mm 6 mps 731 mmHg 78%
16:00 +2°C° 0 mm 5 mps 731 mmHg 80%
17:00 +1°C° 0 mm 5 mps 732 mmHg 82%
18:00 +1°C° 0 mm 4 mps 732 mmHg 84%
19:00 +2°C° 0 mm 3 mps 732 mmHg 86%
20:00 +1°C° 0 mm 3 mps 733 mmHg 88%
21:00 +2°C° 0 mm 2 mps 733 mmHg 87%
22:00 +2°C° 0 mm 2 mps 733 mmHg 86%
23:00 +2°C° 0 mm 2 mps 733 mmHg 84%

27 January, Wednesday

Time Temperature Precipitation Wind Pressure Humidity
00:00 +2°C° 0 mm 2 mps 733 mmHg 84%
01:00 +3°C° 0 mm 1 mps 733 mmHg 83%
02:00 +3°C° 0 mm 1 mps 733 mmHg 83%
03:00 +3°C° 0.1 mm 1 mps 733 mmHg 85%
04:00 +3°C° 0.1 mm 1 mps 732 mmHg 87%
05:00 +3°C° 0.1 mm 1 mps 732 mmHg 89%
06:00 +3°C° 0.1 mm 1 mps 732 mmHg 87%
07:00 +3°C° 0.1 mm 1 mps 732 mmHg 85%
08:00 +3°C° 0.1 mm 1 mps 732 mmHg 83%
09:00 +2°C° 0.1 mm 2 mps 732 mmHg 79%
10:00 +3°C° 0.1 mm 2 mps 732 mmHg 74%
11:00 +2°C° 0.1 mm 3 mps 731 mmHg 70%
12:00 +2°C° 0 mm 3 mps 731 mmHg 68%
13:00 +1°C° 0 mm 4 mps 730 mmHg 67%
14:00 +1°C° 0 mm 5 mps 730 mmHg 66%
15:00 +1°C° 0 mm 5 mps 729 mmHg 70%
16:00 0°C° 0 mm 5 mps 729 mmHg 73%
17:00 -1°C° 0 mm 6 mps 729 mmHg 77%
18:00 -2°C° 0.1 mm 6 mps 728 mmHg 79%
19:00 -2°C° 0.1 mm 6 mps 728 mmHg 81%
20:00 -2°C° 0.1 mm 6 mps 728 mmHg 83%
21:00 -3°C° 0.4 mm 7 mps 727 mmHg 84%
22:00 -3°C° 0.4 mm 7 mps 727 mmHg 86%
23:00 -3°C° 0.4 mm 7 mps 727 mmHg 87%

28 January, Thursday

Time Temperature Precipitation Wind Pressure Humidity
00:00 -5°C° 0.5 mm 8 mps 726 mmHg 88%
01:00 -5°C° 0.5 mm 8 mps 726 mmHg 88%
02:00 -5°C° 0.5 mm 8 mps 726 mmHg 89%
03:00 -5°C° 0.4 mm 8 mps 726 mmHg 89%
04:00 -6°C° 0.4 mm 8 mps 726 mmHg 90%
05:00 -6°C° 0.4 mm 7 mps 726 mmHg 90%
06:00 -6°C° 0.3 mm 7 mps 726 mmHg 91%
07:00 -6°C° 0.3 mm 7 mps 726 mmHg 91%
08:00 -6°C° 0.3 mm 7 mps 726 mmHg 92%
09:00 -6°C° 0.2 mm 7 mps 727 mmHg 92%
10:00 -4°C° 0.2 mm 6 mps 727 mmHg 91%
11:00 -4°C° 0.2 mm 6 mps 727 mmHg 91%
12:00 -4°C° 0.3 mm 6 mps 727 mmHg 92%
13:00 -4°C° 0.3 mm 5 mps 727 mmHg 93%
14:00 -4°C° 0.3 mm 5 mps 727 mmHg 93%
15:00 -4°C° 0.3 mm 5 mps 727 mmHg 94%
16:00 -4°C° 0.3 mm 5 mps 727 mmHg 95%
17:00 -5°C° 0.3 mm 5 mps 728 mmHg 95%
18:00 -5°C° 0.2 mm 5 mps 728 mmHg 95%
19:00 -4°C° 0.2 mm 4 mps 728 mmHg 95%
20:00 -4°C° 0.2 mm 4 mps 728 mmHg 95%
Show more